Regional Weather Roundup
Issued by NWS

Home | Current Version | Previous Version | Text Only | Print | Product List | Glossary Off
Versions: 1 2 3 4 5 6 7 8 9 10 11 12 13 14 15 16 17 18 19 20 21 22 23 24 25 26 27 28 29 30 31 32 33 34 35 36 37 38 39 40 41 42 43 44 45 46 47 48 49 50

990
ASUS45 KSLC 060710
RWRUT

UTAH REGIONAL WEATHER ROUNDUP
NATIONAL WEATHER SERVICE SALT LAKE CITY UT
1200 AM MST SAT FEB 06 2016

UTZ001>011-023>025-060800-

NORTHERN UTAH

CITY           SKY/WX    TMP DP  RH WIND       PRES   REMARKS
BRIGHAM CITY   CLOUDY    29  26  86 CALM      30.53S
HILL AFB       PTCLDY    26  16  64 S3        30.51R
LOGAN          MOCLDY    24  23  96 S3        30.51S FOG
OGDEN          CLOUDY    30  23  75 W3        30.52R
PROVO AIRPORT    N/A     10   7  85 CALM      30.55R VSB<1/4
SALT LAKE CITY PTCLDY    27  20  75 SE9       30.52F WCI  18
VERNAL         CLOUDY     4  -1  80 N3        30.55R
WENDOVER       PTCLDY    27  21  80 CALM      30.52S
HEBER CITY     PTCLDY     9   3  78 CALM      30.51S FOG
WEST JORDAN    CLEAR     25  19  80 S6        30.52F WCI  18

$$

UTZ012>022-026-027-060800-

SOUTHERN/CENTRAL UTAH

CITY           SKY/WX    TMP DP  RH WIND       PRES   REMARKS
BLANDING       PTCLDY    12   6  77 NW5       30.56R WCI   4
BRYCE CANYON   CLEAR      3   0  87 W9        30.47F WCI -12
CEDAR CITY     PTCLDY    11   9  92 NE3       30.49S
DELTA          CLOUDY     6   4  91 CALM      30.55S VSB<1/4
HANKSVILLE     CLOUDY    18  16  93 N6        30.63R WCI   9
MILFORD        PTCLDY     4   0  83 SW5       30.52F WCI  -5
MOAB/CYNLANDS  CLOUDY    17  15  92 CALM      30.60R
PRICE          PTCLDY     7   3  84 NE5       30.50R WCI  -2
ST GEORGE      MOSUNNY   39  21  48 NE7       30.53S WCI  34
KANAB          CLEAR     32  23  69 N15       30.53R WCI  22

$$

REGIONAL REPORTS     COLORADO/ARIZONA

CITY           SKY/WX    TMP DP  RH WIND       PRES   REMARKS
CRAIG, CO      CLOUDY    -7 -11  83 SW5       30.49F WCI -18
GRAND JUNCTION CLOUDY     6   4  91 SE3       30.59R
RIFLE          CLOUDY     3  -1  83 SE3       30.57R
MONTROSE       CLOUDY     8   2  76 SE7       30.57R WCI  -3
CORTEZ         CLOUDY     8   3  80 NE9       30.48R WCI  -5
PAGE, AZ       CLEAR     29  21  72 SE8       30.52R WCI  21
GRAND CANYON   PTCLDY    16  10  77 NE10      30.48R WCI   4
KINGMAN        CLEAR     34  32  92 N9        30.45R WCI  27
FLAGSTAFF      CLEAR     21  11  65 NE7       30.45S WCI  12

$$

REGIONAL REPORTS    NEVADA/IDAHO/WYOMING

CITY           SKY/WX    TMP DP  RH WIND       PRES   REMARKS
LAS VEGAS, NV  CLEAR     45  25  45 SW3       30.43R
ELY            PTCLDY     7   2  80 S16       30.49S WCI -11
ELKO           PTCLDY    12   8  84 E7        30.50R WCI   1
POCATELLO, ID  CLOUDY    15  14  95 CALM      30.49S FOG
BURLEY         PTCLDY    23  20  88 NE3       30.43F
EVANSTON, WY   CLOUDY    16  12  84 SW10      30.44S WCI   4
ROCK SPRINGS   CLOUDY    21  15  78 W20       30.38S WCI   6

$$




USA.gov is the U.S. government's official web portal to all federal, state and local government web resources and services.